User: anonymous   Login
Location: Unspecified
(0.0000°N, 0.0000°E)
Time: 12:10:26
(UTC+00:00)
Language:

XW-2F - Orbit

View from above orbital plane
View from above orbital plane
View from above satellite
View from above satellite

Ground track
Ground track

The orbit data is extracted from the following two-line orbital elements,

1 40910U 15049M   18175.93906506 +.00001224 +00000-0 +65984-4 0  9998
2 40910 097.4569 180.3132 0015147 003.3883 356.7450 15.16564913152758
Epoch (UTC): 24 June 2018 22:32:15
Eccentricity: 0.0015147
inclination: 97.4569°
perigee height: 506 km
apogee height: 526 km
right ascension of ascending node: 180.3132°
argument of perigee: 3.3883°
revolutions per day: 15.16564913
mean anomaly at epoch: 356.7450°
orbit number at epoch: 15275

The dashed part of the orbit path shows where the satellite is in the earth's shadow,  

DLR